| time (UTC) | temp C | wind direction | speed KPH | gust KPH | rain 1hr cm | rain 24hr cm | rain mn cm | humidity % | barometer mb |
| 20260506231548 | 7 | 45 | 0.0 | 0.0 | 0.00 | 0.03 | 0.00 | 70 | 998.7 |
| 20260506230037 | 7 | 45 | 0.0 | 0.0 | 0.00 | 0.03 | 0.00 | 70 | 998.8 |
| 20260506224526 | 7 | 45 | 0.0 | 0.0 | 0.00 | 0.03 | 0.00 | 69 | 998.8 |
| 20260506223021 | 7 | 45 | 0.0 | 0.0 | 0.00 | 0.03 | 0.00 | 68 | 998.8 |
| 20260506221612 | 7 | 45 | 0.0 | 0.0 | 0.00 | 0.03 | 0.00 | 65 | 998.9 |
| 20260506214550 | 9 | 45 | 0.0 | 0.0 | 0.00 | 0.03 | 0.00 | 60 | 999.2 |
| 20260506213045 | 10 | 45 | 0.0 | 6.4 | 0.00 | 0.03 | 0.00 | 59 | 998.9 |
| 20260506211534 | 10 | 52 | 1.6 | 6.4 | 0.00 | 0.03 | 0.00 | 57 | 998.9 |
| 20260506210057 | 10 | 53 | 1.6 | 3.2 | 0.00 | 0.03 | 0.00 | 57 | 998.9 |
| 20260506204546 | 10 | 52 | 1.6 | 9.7 | 0.00 | 0.03 | 0.03 | 56 | 999.0 |
| 20260506203036 | 11 | 53 | 1.6 | 6.4 | 0.00 | 0.03 | 0.03 | 58 | 999.1 |
| 20260506201525 | 11 | 52 | 1.6 | 3.2 | 0.00 | 0.03 | 0.03 | 62 | 999.2 |
| 20260506200114 | 11 | 23 | 0.0 | 3.2 | 0.00 | 0.03 | 0.03 | 66 | 999.0 |
| 20260506194609 | 11 | 23 | 0.0 | 3.2 | 0.00 | 0.03 | 0.03 | 64 | 998.8 |
| 20260506193059 | 10 | 23 | 0.0 | 3.2 | 0.00 | 0.03 | 0.03 | 75 | 998.6 |
| 20260506191548 | 10 | 23 | 0.0 | 0.0 | 0.00 | 0.03 | 0.03 | 80 | 998.3 |
| 20260506190037 | 10 | 23 | 0.0 | 0.0 | 0.00 | 0.03 | 0.03 | 79 | 998.2 |
| 20260506184527 | 11 | 23 | 0.0 | 0.0 | 0.00 | 0.03 | 0.03 | 73 | 998.1 |
| 20260506183022 | 12 | 23 | 0.0 | 0.0 | 0.00 | 0.03 | 0.03 | 68 | 998.0 |
| 20260506181612 | 13 | 23 | 0.0 | 0.0 | 0.00 | 0.03 | 0.03 | 65 | 997.8 |
| 20260506174550 | 14 | 23 | 0.0 | 0.0 | 0.00 | 0.03 | 0.03 | 58 | 997.5 |
| 20260506173045 | 16 | 23 | 0.0 | 3.2 | 0.00 | 0.03 | 0.03 | 54 | 997.2 |
| 20260506170058 | 16 | 293 | 0.0 | 3.2 | 0.00 | 0.03 | 0.03 | 52 | 996.8 |
| 20260506164547 | 16 | 293 | 0.0 | 3.2 | 0.00 | 0.03 | 0.03 | 52 | 996.7 |
| 20260506163036 | 17 | 23 | 0.0 | 3.2 | 0.00 | 0.03 | 0.03 | 50 | 996.6 |
| 20260506161526 | 18 | 248 | 0.0 | 3.2 | 0.00 | 0.03 | 0.03 | 49 | 996.5 |
| 20260506160115 | 18 | 341 | 0.0 | 6.4 | 0.00 | 0.03 | 0.03 | 47 | 996.4 |
| 20260506154611 | 19 | 34 | 0.0 | 3.2 | 0.00 | 0.03 | 0.03 | 47 | 996.2 |
| 20260506153100 | 19 | 293 | 0.0 | 3.2 | 0.00 | 0.03 | 0.03 | 46 | 996.2 |
| 20260506151549 | 20 | 279 | 1.6 | 11.3 | 0.00 | 0.03 | 0.03 | 45 | 996.2 |
| 20260506150038 | 20 | 240 | 0.0 | 3.2 | 0.00 | 0.03 | 0.03 | 44 | 996.0 |
| 20260506144529 | 21 | 275 | 1.6 | 6.4 | 0.00 | 0.03 | 0.03 | 45 | 996.0 |
| 20260506143023 | 20 | 279 | 1.6 | 6.4 | 0.00 | 0.03 | 0.03 | 45 | 995.8 |
| 20260506141612 | 21 | 266 | 3.2 | 6.4 | 0.00 | 0.03 | 0.03 | 44 | 995.7 |
| 20260506134551 | 21 | 256 | 3.2 | 12.9 | 0.00 | 0.03 | 0.03 | 46 | 995.7 |
| 20260506133046 | 21 | 259 | 1.6 | 6.4 | 0.00 | 0.03 | 0.03 | 45 | 995.6 |
| 20260506131535 | 21 | 281 | 3.2 | 9.7 | 0.00 | 0.03 | 0.03 | 45 | 995.5 |
| 20260506130057 | 21 | 167 | 4.8 | 12.9 | 0.00 | 0.03 | 0.03 | 46 | 995.4 |
| 20260506124546 | 21 | 311 | 1.6 | 6.4 | 0.00 | 0.03 | 0.03 | 47 | 995.3 |
| 20260506121527 | 22 | 284 | 4.8 | 14.5 | 0.00 | 0.03 | 0.03 | 44 | 995.1 |
| 20260506120115 | 21 | 286 | 1.6 | 9.7 | 0.00 | 0.03 | 0.03 | 46 | 995.2 |
| 20260506114610 | 22 | 296 | 1.6 | 12.9 | 0.00 | 0.03 | 0.03 | 45 | 995.0 |